Vorticity
5 5 8 7 1 23 19 8 6 4 15 9 10 23 27 46 20 9 14 10 6 7 20 21 26 10 12 49 17 17 7 4 3 8 10 10 10 8 8 11 16 5 3 15 15 0 1
6 5 6 7 -1 21 17 7 6 3 16 8 12 23 29 42 17 17 8 24 12 12 18 25 31 23 -9 23 28 19 9 9 8 4 5 11 12 7 10 5 10 11 0 12 6 5 8
4 7 6 0 9 18 16 10 6 12 9 8 11 22 34 32 23 1 17 26 8 6 13 4 16 26 12 -9 16 27 14 15 16 4 13 10 11 10 8 9 8 6 4 13 2 2 10
4 5 6 3 23 14 16 10 2 20 8 8 5 33 40 47 22 4 10 12 26 21 -2 2 35 32 35 14 40 33 30 -7 18 8 13 11 13 10 6 11 7 6 15 -5 16 7 2
3 6 5 14 23 12 14 13 1 15 6 6 11 6 27 57 22 11 11 7 12 14 9 11 36 28 22 8 31 24 28 -3 13 -0 9 8 7 11 10 6 10 4 7 17 -3 8 11
2 1 7 14 20 12 12 12 3 14 3 8 15 15 6 10 64 42 20 17 8 17 11 30 20 31 5 19 32 27 9 14 10 11 14 4 11 12 10 6 10 8 9 10 11 6 6
3 4 0 21 20 12 12 13 6 8 4 12 14 19 19 16 -2 27 57 36 19 20 22 20 9 33 7 29 25 1 18 9 12 17 9 16 7 4 16 20 6 3 8 9 12 9 20
1 4 4 20 24 13 14 12 6 3 3 11 16 0 -16 -8 9 22 31 37 41 35 25 31 -11 36 23 31 9 11 9 16 -4 22 9 3 11 11 5 24 3 4 -2 -1 5 5 10
1 3 7 17 31 13 15 10 4 11 0 1 11 18 5 -10 13 -3 5 14 23 31 34 36 42 16 23 6 13 20 11 4 6 16 18 15 6 11 9 8 35 2 5 -3 -0 8 10
4 1 5 7 30 13 16 10 5 18 4 4 4 22 -10 -4 10 26 47 18 22 24 28 24 24 9 -26 28 -22 29 3 6 -13 -4 4 4 8 7 5 12 11 23 7 4 3 3 9
1 1 3 12 19 19 15 15 10 15 16 1 7 4 3 5 15 36 -67 -24 16 -10 -21 9 4 4 2 -33 26 8 9 7 8 3 2 -6 5 10 4 22 9 26 15 8 1 4 4
4 1 3 10 27 12 17 25 9 11 5 2 5 5 8 5 13 12 15 23 36 25 11 -24 24 33 14 30 0 4 10 3 -2 9 7 10 20 14 20 14 10 12 16 7 7 7 7
5 2 1 8 6 13 17 16 14 9 6 -2 9 3 13 10 15 11 14 13 39 -17 -2 36 10 14 -0 21 13 7 -36 36 27 13 21 9 15 14 2 -5 7 10 28 15 18 7 3
4 6 3 6 11 30 13 11 30 9 15 8 8 2 8 9 5 5 9 9 1 3 16 -10 18 -3 -2 21 20 -1 47 21 5 17 27 -0 1 13 4 17 -1 -1 8 27 11 11 7
4 4 3 3 4 13 34 5 12 17 12 5 1 7 -1 11 10 7 4 -1 -2 -0 2 0 11 8 16 14 11 14 13 34 19 8 7 30 18 -1 11 10 19 10 12 22 11 12 9
6 5 5 -0 0 8 19 17 6 31 11 13 11 3 6 2 18 4 1 -10 -7 5 14 21 12 9 8 5 5 7 17 -7 16 20 15 23 8 12 20 34 2 17 18 13 5 10 8
8 4 4 4 6 5 15 12 3 11 22 10 9 13 4 7 6 12 6 1 -10 -11 5 2 4 8 7 1 2 8 11 6 -3 25 9 6 23 7 -3 21 20 31 7 6 9 9 5
6 4 6 0 6 2 7 7 19 9 26 22 10 5 14 12 5 3 8 7 -2 7 11 8 5 4 6 5 16 7 4 8 11 6 4 4 11 12 4 4 6 29 11 16 15 14 9
6 5 6 2 6 3 -0 25 1 10 18 23 14 6 8 1 3 9 8 9 8 6 2 7 6 6 4 7 10 7 8 13 13 17 4 10 4 4 11 0 15 5 2 37 -6 6 17
0 6 6 7 6 1 6 8 28 8 16 36 19 8 8 10 10 9 9 13 7 10 4 4 7 9 5 8 11 9 8 8 9 11 19 12 8 8 6 17 -3 8 10 8 -3 -2 4
-0 4 1 11 7 3 8 9 4 24 8 28 24 12 4 3 4 7 13 10 10 11 10 5 8 7 8 9 11 10 7 10 12 10 6 24 20 8 5 8 12 23 5 3 3 9 -1
4 7 5 6 12 5 1 11 19 32 9 10 35 17 7 2 2 4 2 13 10 10 9 7 3 4 7 8 10 7 6 10 10 11 12 6 7 15 14 8 8 13 25 12 13 8 8
-3 4 7 4 1 5 3 13 58 14 5 12 28 27 10 2 3 -0 6 4 10 14 18 22 21 16 16 11 8 10 7 10 5 10 9 6 11 12 17 4 12 15 11 14 15 17 17
4 3 5 7 9 7 3 20 14 17 6 8 21 31 21 9 8 3 2 3 1 -1 1 -1 0 6 15 20 17 13 8 17 12 7 10 9 12 14 14 7 13 10 14 10 12 11 15
9 5 10 8 5 3 4 12 18 30 5 2 25 18 33 13 9 5 8 3 -1 1 -2 -1 0 1 1 2 13 14 10 11 12 11 11 10 10 12 7 14 10 9 15 15 13 7 9
-2 2 12 6 1 4 6 11 8 38 -1 7 22 29 16 34 10 7 8 11 3 5 -1 -1 0 3 1 -0 2 5 7 10 8 5 8 13 10 8 8 7 14 12 8 8 10 14 13
6 5 13 12 6 5 6 22 6 31 -7 16 19 33 11 27 32 8 8 7 12 11 15 15 12 16 12 10 10 8 8 6 7 13 11 5 9 10 11 7 8 5 9 6 8 10 10
12 -2 28 5 1 13 5 26 34 22 10 15 14 23 19 24 13 15 17 7 7 6 4 9 9 6 7 5 7 7 7 12 9 7 7 9 11 7 5 10 6 7 8 5 7 9 12
10 8 15 4 7 12 30 21 16 14 9 9 14 12 28 26 23 24 6 11 7 10 7 3 6 6 4 5 3 3 5 3 3 5 8 4 4 10 13 12 8 3 7 6 7 7 8
Height
5752 5740 5728 5716 5703 5691 5679 5666 5651 5640 5627 5611 5593 5574 5556 5540 5533 5531 5529 5527 5525 5524 5525 5527 5531 5538 5546 5558 5576 5593 5609 5624 5639 5648 5661 5670 5679 5687 5697 5707 5710 5718 5727 5729 5739 5744 5754
5749 5736 5723 5712 5699 5686 5676 5662 5648 5635 5620 5604 5586 5565 5547 5533 5528 5526 5524 5521 5520 5520 5521 5522 5525 5532 5541 5551 5560 5579 5601 5618 5632 5643 5654 5665 5675 5683 5690 5696 5704 5717 5718 5724 5728 5740 5752
5745 5732 5720 5709 5696 5683 5672 5658 5645 5633 5617 5600 5581 5561 5541 5529 5525 5524 5521 5518 5517 5518 5520 5521 5522 5526 5536 5544 5552 5575 5595 5614 5626 5637 5649 5659 5667 5675 5683 5690 5698 5702 5707 5719 5725 5737 5745
5742 5729 5718 5707 5693 5681 5669 5656 5645 5631 5617 5600 5581 5559 5540 5528 5524 5522 5519 5516 5515 5517 5518 5518 5518 5523 5533 5540 5550 5567 5587 5606 5619 5631 5643 5652 5660 5668 5676 5685 5695 5699 5703 5712 5722 5729 5739
5739 5726 5716 5704 5691 5679 5668 5654 5645 5632 5618 5603 5585 5564 5546 5530 5525 5521 5518 5517 5516 5516 5517 5516 5515 5521 5529 5541 5551 5566 5586 5603 5617 5630 5640 5649 5658 5666 5674 5683 5689 5692 5702 5711 5720 5726 5734
5737 5723 5712 5702 5689 5676 5666 5655 5645 5634 5621 5607 5591 5574 5557 5541 5528 5521 5517 5516 5516 5516 5516 5516 5517 5525 5533 5540 5550 5568 5586 5602 5616 5627 5635 5647 5655 5662 5670 5677 5688 5701 5706 5710 5716 5721 5726
5734 5722 5711 5699 5687 5675 5665 5656 5647 5636 5624 5611 5599 5584 5569 5553 5540 5528 5518 5515 5517 5518 5517 5519 5522 5527 5537 5545 5555 5576 5589 5603 5616 5626 5636 5644 5654 5665 5676 5685 5690 5690 5695 5703 5709 5712 5721
5733 5721 5708 5696 5686 5675 5666 5657 5649 5640 5629 5616 5606 5593 5581 5568 5557 5544 5531 5524 5521 5523 5524 5525 5529 5537 5546 5554 5564 5578 5591 5607 5620 5627 5636 5647 5657 5663 5669 5675 5679 5683 5692 5699 5702 5709 5717
5731 5719 5706 5695 5685 5676 5667 5658 5651 5643 5633 5623 5613 5601 5590 5581 5572 5562 5554 5543 5538 5536 5536 5537 5540 5547 5556 5570 5580 5589 5599 5611 5621 5631 5638 5646 5654 5659 5665 5670 5675 5683 5690 5696 5699 5705 5712
5728 5716 5705 5694 5685 5678 5668 5659 5652 5646 5639 5629 5620 5610 5600 5592 5586 5576 5571 5562 5560 5556 5553 5555 5558 5562 5566 5577 5587 5596 5604 5616 5624 5632 5638 5645 5653 5657 5662 5667 5672 5677 5683 5689 5693 5703 5706
5725 5714 5704 5694 5686 5677 5668 5660 5654 5648 5642 5634 5626 5618 5609 5601 5596 5591 5583 5576 5574 5574 5571 5573 5576 5579 5580 5586 5594 5599 5609 5618 5627 5633 5639 5645 5650 5655 5659 5664 5668 5672 5678 5684 5692 5697 5697
5723 5712 5703 5695 5685 5676 5669 5662 5656 5650 5644 5639 5631 5625 5617 5610 5603 5598 5592 5588 5585 5582 5580 5583 5585 5591 5593 5595 5602 5609 5616 5622 5627 5632 5639 5644 5649 5652 5657 5660 5664 5668 5673 5680 5685 5689 5692
5721 5711 5702 5692 5682 5676 5668 5662 5655 5651 5645 5640 5636 5630 5624 5617 5612 5607 5602 5600 5599 5594 5592 5595 5596 5599 5602 5606 5609 5615 5618 5622 5627 5632 5636 5641 5646 5651 5653 5659 5663 5664 5668 5674 5679 5683 5690
5720 5710 5700 5690 5681 5674 5667 5660 5655 5649 5648 5642 5637 5635 5630 5625 5620 5615 5612 5611 5611 5607 5606 5607 5608 5610 5612 5614 5617 5619 5620 5622 5627 5632 5637 5641 5645 5649 5653 5657 5661 5662 5666 5669 5675 5681 5687
5719 5709 5698 5690 5681 5673 5666 5658 5654 5649 5646 5644 5639 5637 5634 5630 5626 5622 5620 5620 5617 5616 5617 5616 5617 5616 5616 5618 5619 5621 5622 5626 5629 5632 5637 5640 5643 5647 5650 5653 5657 5659 5662 5667 5673 5678 5682
5716 5707 5696 5687 5678 5671 5663 5658 5651 5646 5643 5642 5640 5638 5636 5633 5629 5626 5624 5623 5621 5619 5620 5621 5620 5620 5621 5621 5622 5624 5626 5629 5632 5633 5635 5639 5642 5645 5648 5650 5653 5655 5660 5664 5669 5674 5678
5713 5704 5695 5685 5675 5668 5662 5656 5649 5643 5640 5638 5640 5637 5636 5633 5631 5629 5627 5624 5622 5624 5624 5623 5623 5624 5626 5626 5626 5626 5629 5631 5633 5635 5637 5639 5641 5644 5647 5648 5651 5652 5655 5661 5667 5671 5674
5708 5700 5692 5682 5672 5664 5657 5651 5647 5642 5638 5637 5636 5635 5634 5632 5631 5629 5628 5627 5625 5625 5624 5625 5625 5625 5625 5626 5627 5629 5630 5631 5632 5634 5637 5639 5641 5643 5646 5647 5650 5651 5655 5658 5661 5667 5671
5705 5697 5687 5679 5669 5659 5653 5649 5643 5638 5633 5632 5632 5631 5631 5630 5629 5628 5627 5626 5625 5624 5624 5625 5624 5624 5625 5626 5628 5628 5630 5631 5632 5634 5635 5638 5640 5642 5643 5647 5648 5650 5653 5655 5659 5663 5666
5701 5692 5683 5674 5666 5655 5646 5641 5637 5633 5629 5628 5627 5627 5627 5627 5626 5625 5625 5624 5624 5624 5623 5623 5624 5624 5625 5626 5627 5628 5629 5630 5631 5632 5633 5635 5637 5640 5642 5645 5646 5648 5651 5654 5657 5660 5663
5695 5686 5678 5668 5660 5650 5644 5636 5633 5628 5622 5620 5620 5622 5622 5623 5623 5622 5622 5622 5622 5622 5623 5623 5623 5623 5623 5624 5625 5626 5627 5628 5629 5630 5632 5633 5635 5636 5639 5640 5643 5645 5647 5650 5654 5657 5658
5690 5681 5672 5663 5654 5644 5636 5630 5625 5622 5619 5614 5614 5615 5617 5618 5619 5619 5619 5619 5619 5619 5620 5621 5621 5621 5621 5622 5623 5624 5625 5627 5628 5629 5630 5631 5633 5634 5635 5637 5639 5641 5642 5645 5649 5652 5654
5683 5674 5667 5657 5647 5638 5630 5624 5618 5614 5610 5607 5608 5608 5610 5612 5614 5615 5617 5617 5617 5617 5618 5618 5618 5618 5619 5620 5620 5621 5623 5624 5625 5626 5627 5629 5630 5631 5633 5634 5635 5638 5639 5641 5642 5644 5646
5676 5668 5659 5650 5641 5630 5622 5615 5611 5609 5605 5601 5602 5601 5602 5604 5606 5609 5611 5612 5614 5614 5615 5616 5616 5616 5617 5617 5618 5619 5620 5621 5622 5623 5624 5626 5627 5628 5630 5631 5633 5635 5636 5637 5639 5640 5643
5669 5660 5652 5642 5633 5624 5615 5609 5606 5603 5598 5596 5594 5596 5594 5596 5597 5601 5605 5607 5608 5610 5611 5612 5614 5614 5615 5615 5616 5616 5618 5619 5619 5620 5621 5622 5624 5625 5627 5628 5631 5632 5633 5634 5636 5638 5639
5661 5653 5643 5634 5623 5613 5607 5601 5598 5596 5591 5588 5586 5588 5587 5586 5591 5593 5596 5599 5601 5604 5607 5608 5610 5611 5612 5613 5613 5614 5615 5616 5618 5618 5618 5619 5621 5623 5624 5625 5627 5630 5630 5632 5633 5635 5636
5654 5646 5635 5625 5615 5606 5597 5594 5592 5589 5583 5581 5580 5579 5578 5577 5580 5584 5587 5591 5595 5596 5600 5602 5603 5605 5607 5608 5609 5611 5612 5613 5614 5615 5616 5617 5618 5619 5620 5621 5624 5626 5627 5628 5631 5634 5632
5647 5639 5626 5615 5606 5598 5590 5585 5582 5578 5575 5574 5573 5572 5571 5570 5571 5573 5578 5582 5586 5589 5592 5598 5599 5600 5601 5603 5605 5606 5608 5609 5610 5611 5612 5613 5614 5616 5616 5618 5621 5622 5623 5626 5627 5627 5628
5638 5631 5617 5607 5598 5590 5582 5578 5575 5573 5568 5564 5565 5565 5563 5562 5562 5566 5568 5572 5577 5582 5585 5588 5593 5594 5596 5598 5600 5600 5603 5604 5606 5607 5608 5609 5610 5612 5613 5614 5615 5616 5618 5620 5621 5622 5623